When you browse on this site, cookies collect data to enhance your experience and personalize the content and advertising you see.
Visit our Privacy Policy to learn more. By continuing to use the site, you agree to this use of cookies and data.

Hourly Weather La Rioja

Today, 11 August, Tuesday

Time Temperature Precipitation Wind Pressure Humidity
00:00 +14°C° 0 mm 4 mps 719 mmHg 30%
01:00 +12°C° 0 mm 3 mps 719 mmHg 29%
02:00 +11°C° 0 mm 3 mps 719 mmHg 28%
03:00 +10°C° 0 mm 3 mps 719 mmHg 29%
04:00 +9°C° 0 mm 2 mps 719 mmHg 30%
05:00 +8°C° 0 mm 2 mps 719 mmHg 32%
06:00 +8°C° 0 mm 2 mps 719 mmHg 28%
07:00 +8°C° 0 mm 2 mps 719 mmHg 25%
08:00 +8°C° 0 mm 3 mps 719 mmHg 22%
09:00 +9°C° 0 mm 3 mps 719 mmHg 21%
10:00 +10°C° 0 mm 3 mps 719 mmHg 21%
11:00 +11°C° 0 mm 3 mps 718 mmHg 20%
12:00 +13°C° 0 mm 2 mps 717 mmHg 20%
13:00 +14°C° 0 mm 2 mps 716 mmHg 20%
14:00 +15°C° 0 mm 2 mps 715 mmHg 20%
15:00 +15°C° 0 mm 2 mps 715 mmHg 21%
16:00 +15°C° 0 mm 2 mps 714 mmHg 22%
17:00 +15°C° 0 mm 2 mps 714 mmHg 23%
18:00 +13°C° 0 mm 2 mps 714 mmHg 25%
19:00 +12°C° 0 mm 1 mps 714 mmHg 28%
20:00 +11°C° 0 mm 1 mps 714 mmHg 30%
21:00 +10°C° 0 mm 1 mps 714 mmHg 31%
22:00 +9°C° 0 mm 1 mps 714 mmHg 32%
23:00 +7°C° 0 mm 0 mps 714 mmHg 33%

Tomorrow, 12 August, Wednesday

Time Temperature Precipitation Wind Pressure Humidity
00:00 +7°C° 0 mm 0 mps 714 mmHg 35%
01:00 +6°C° 0 mm 0 mps 713 mmHg 37%
02:00 +5°C° 0 mm 0 mps 713 mmHg 38%
03:00 +6°C° 0 mm 1 mps 712 mmHg 39%
04:00 +6°C° 0 mm 1 mps 712 mmHg 39%
05:00 +6°C° 0 mm 1 mps 712 mmHg 40%
06:00 +6°C° 0 mm 1 mps 712 mmHg 38%
07:00 +6°C° 0 mm 2 mps 713 mmHg 37%
08:00 +7°C° 0 mm 2 mps 713 mmHg 35%
09:00 +9°C° 0 mm 2 mps 713 mmHg 31%
10:00 +12°C° 0 mm 2 mps 713 mmHg 27%
11:00 +13°C° 0 mm 2 mps 713 mmHg 23%
12:00 +14°C° 0 mm 2 mps 712 mmHg 22%
13:00 +15°C° 0 mm 2 mps 711 mmHg 21%
14:00 +17°C° 0 mm 2 mps 710 mmHg 19%
15:00 +16°C° 0 mm 2 mps 710 mmHg 20%
16:00 +16°C° 0 mm 2 mps 710 mmHg 20%
17:00 +16°C° 0 mm 2 mps 709 mmHg 20%
18:00 +14°C° 0 mm 2 mps 710 mmHg 23%
19:00 +13°C° 0 mm 2 mps 710 mmHg 26%
20:00 +11°C° 0 mm 1 mps 711 mmHg 29%
21:00 +10°C° 0 mm 1 mps 711 mmHg 30%
22:00 +9°C° 0 mm 1 mps 711 mmHg 32%
23:00 +9°C° 0 mm 1 mps 711 mmHg 34%

Day after tomorrow, 13 August, Thursday

Time Temperature Precipitation Wind Pressure Humidity
00:00 +8°C° 0 mm 1 mps 711 mmHg 34%
01:00 +8°C° 0 mm 1 mps 711 mmHg 34%
02:00 +8°C° 0 mm 1 mps 711 mmHg 34%
03:00 +8°C° 0 mm 1 mps 711 mmHg 37%
04:00 +7°C° 0 mm 1 mps 711 mmHg 39%
05:00 +7°C° 0 mm 1 mps 711 mmHg 42%
06:00 +8°C° 0 mm 1 mps 711 mmHg 39%
07:00 +9°C° 0 mm 1 mps 712 mmHg 37%
08:00 +10°C° 0 mm 1 mps 712 mmHg 34%
09:00 +12°C° 0 mm 2 mps 712 mmHg 30%
10:00 +14°C° 0 mm 2 mps 713 mmHg 25%
11:00 +17°C° 0 mm 2 mps 713 mmHg 21%
12:00 +18°C° 0 mm 2 mps 712 mmHg 19%
13:00 +19°C° 0 mm 2 mps 711 mmHg 18%
14:00 +20°C° 0 mm 2 mps 710 mmHg 17%
15:00 +20°C° 0 mm 2 mps 710 mmHg 17%
16:00 +20°C° 0 mm 2 mps 709 mmHg 17%
17:00 +20°C° 0 mm 2 mps 709 mmHg 17%
18:00 +17°C° 0 mm 2 mps 709 mmHg 20%
19:00 +15°C° 0 mm 1 mps 709 mmHg 24%
20:00 +12°C° 0 mm 1 mps 709 mmHg 27%
21:00 +12°C° 0 mm 1 mps 709 mmHg 29%
22:00 +11°C° 0 mm 1 mps 709 mmHg 31%
23:00 +10°C° 0 mm 1 mps 709 mmHg 32%

14 August, Friday

Time Temperature Precipitation Wind Pressure Humidity
00:00 +10°C° 0 mm 1 mps 708 mmHg 34%
01:00 +10°C° 0 mm 1 mps 708 mmHg 36%
02:00 +10°C° 0 mm 1 mps 707 mmHg 38%
03:00 +9°C° 0 mm 1 mps 707 mmHg 42%
04:00 +9°C° 0 mm 1 mps 706 mmHg 45%
05:00 +8°C° 0 mm 1 mps 706 mmHg 49%
06:00 +9°C° 0 mm 1 mps 707 mmHg 44%
07:00 +11°C° 0 mm 1 mps 707 mmHg 39%
08:00 +12°C° 0 mm 1 mps 708 mmHg 35%
09:00 +14°C° 0 mm 2 mps 708 mmHg 30%
10:00 +17°C° 0 mm 2 mps 709 mmHg 26%
11:00 +19°C° 0 mm 3 mps 710 mmHg 22%
12:00 +20°C° 0 mm 3 mps 710 mmHg 21%
13:00 +21°C° 0 mm 4 mps 710 mmHg 20%
14:00 +22°C° 0 mm 4 mps 710 mmHg 20%
15:00 +21°C° 0 mm 4 mps 710 mmHg 19%
16:00 +21°C° 0 mm 4 mps 710 mmHg 18%
17:00 +21°C° 0 mm 4 mps 710 mmHg 18%
18:00 +19°C° 0 mm 4 mps 711 mmHg 22%
19:00 +17°C° 0 mm 4 mps 712 mmHg 27%
20:00 +13°C° 0 mm 3 mps 712 mmHg 31%
21:00 +12°C° 0 mm 3 mps 713 mmHg 33%
22:00 +11°C° 0 mm 3 mps 713 mmHg 34%
23:00 +10°C° 0 mm 2 mps 713 mmHg 35%

15 August, Saturday

Time Temperature Precipitation Wind Pressure Humidity
00:00 +10°C° 0 mm 2 mps 713 mmHg 36%
01:00 +9°C° 0 mm 2 mps 713 mmHg 38%
02:00 +8°C° 0 mm 2 mps 713 mmHg 39%
03:00 +8°C° 0 mm 2 mps 713 mmHg 42%
04:00 +7°C° 0 mm 2 mps 712 mmHg 44%
05:00 +7°C° 0 mm 1 mps 712 mmHg 47%
06:00 +8°C° 0 mm 1 mps 712 mmHg 44%
07:00 +10°C° 0 mm 1 mps 713 mmHg 41%
08:00 +11°C° 0 mm 1 mps 714 mmHg 38%
09:00 +13°C° 0 mm 1 mps 714 mmHg 34%
10:00 +14°C° 0 mm 1 mps 714 mmHg 30%
11:00 +16°C° 0 mm 2 mps 714 mmHg 26%
12:00 +17°C° 0 mm 2 mps 714 mmHg 25%
13:00 +19°C° 0 mm 2 mps 713 mmHg 23%
14:00 +20°C° 0 mm 2 mps 713 mmHg 21%
15:00 +20°C° 0 mm 2 mps 713 mmHg 22%
16:00 +19°C° 0 mm 2 mps 713 mmHg 23%
17:00 +19°C° 0 mm 2 mps 713 mmHg 24%
18:00 +17°C° 0 mm 2 mps 713 mmHg 28%
19:00 +15°C° 0 mm 2 mps 713 mmHg 33%
20:00 +13°C° 0 mm 1 mps 714 mmHg 37%
21:00 +12°C° 0 mm 1 mps 714 mmHg 40%
22:00 +11°C° 0 mm 1 mps 714 mmHg 43%
23:00 +11°C° 0 mm 1 mps 714 mmHg 46%

16 August, Sunday

Time Temperature Precipitation Wind Pressure Humidity
00:00 +10°C° 0 mm 1 mps 713 mmHg 48%
01:00 +10°C° 0 mm 1 mps 713 mmHg 50%
02:00 +10°C° 0 mm 1 mps 712 mmHg 52%
03:00 +9°C° 0 mm 1 mps 712 mmHg 54%
04:00 +9°C° 0 mm 1 mps 711 mmHg 56%
05:00 +8°C° 0 mm 1 mps 710 mmHg 58%
06:00 +8°C° 0 mm 2 mps 710 mmHg 55%
07:00 +9°C° 0 mm 2 mps 710 mmHg 51%
08:00 +10°C° 0 mm 2 mps 710 mmHg 48%
09:00 +13°C° 0 mm 2 mps 710 mmHg 42%
10:00 +16°C° 0 mm 2 mps 710 mmHg 36%
11:00 +18°C° 0 mm 2 mps 710 mmHg 31%
12:00 +19°C° 0 mm 2 mps 709 mmHg 29%
13:00 +20°C° 0 mm 2 mps 709 mmHg 27%
14:00 +21°C° 0 mm 3 mps 708 mmHg 25%
15:00 +21°C° 0 mm 3 mps 708 mmHg 26%
16:00 +21°C° 0 mm 3 mps 709 mmHg 26%
17:00 +21°C° 0 mm 3 mps 709 mmHg 27%
18:00 +19°C° 0 mm 3 mps 709 mmHg 31%
19:00 +17°C° 0 mm 3 mps 710 mmHg 34%
20:00 +16°C° 0 mm 3 mps 711 mmHg 38%
21:00 +14°C° 0 mm 3 mps 711 mmHg 45%
22:00 +14°C° 0 mm 3 mps 712 mmHg 52%
23:00 +13°C° 0 mm 3 mps 713 mmHg 59%
Show more